| time (UTC) | temp F | wind direction | speed knots | gust knots | rain 1hr in | rain 24hr in | rain mn in | humidity % | barometer mb |
| 20260906103031 | 71 | 98 | 0.0 | 1.7 | 0.00 | 0.00 | 0.00 | 88 | 1017.7 |
| 20260906101531 | 71 | 98 | 0.0 | 2.6 | 0.00 | 0.00 | 0.00 | 87 | 1017.4 |
| 20260906100034 | 72 | 98 | 0.0 | 2.6 | 0.00 | 0.00 | 0.00 | 87 | 1017.3 |
| 20260906094550 | 72 | 98 | 0.0 | 1.7 | 0.00 | 0.00 | 0.00 | 87 | 1017.5 |
| 20260906093042 | 72 | 98 | 0.0 | 2.6 | 0.00 | 0.00 | 0.00 | 87 | 1017.3 |
| 20260906091531 | 72 | 99 | 0.9 | 3.5 | 0.00 | 0.00 | 0.00 | 86 | 1017.2 |
| 20260906090035 | 72 | 98 | 0.9 | 3.5 | 0.00 | 0.00 | 0.00 | 86 | 1017.1 |
| 20260906084534 | 72 | 94 | 1.7 | 2.6 | 0.00 | 0.00 | 0.00 | 86 | 1017.2 |
| 20260906083041 | 72 | 94 | 0.0 | 1.7 | 0.00 | 0.00 | 0.00 | 87 | 1017.2 |
| 20260906081509 | 72 | 94 | 0.0 | 2.6 | 0.00 | 0.00 | 0.00 | 87 | 1017.4 |
| 20260906080010 | 72 | 94 | 0.0 | 1.7 | 0.00 | 0.00 | 0.00 | 87 | 1017.4 |
| 20260906074516 | 73 | 96 | 0.0 | 3.5 | 0.00 | 0.00 | 0.00 | 86 | 1017.3 |
| 20260906073027 | 73 | 72 | 0.0 | 1.7 | 0.00 | 0.00 | 0.00 | 87 | 1017.4 |
| 20260906071525 | 73 | 89 | 0.0 | 1.7 | 0.00 | 0.00 | 0.00 | 87 | 1017.2 |
| 20260906070010 | 73 | 5 | 0.0 | 2.6 | 0.00 | 0.00 | 0.00 | 87 | 1017.3 |
| 20260906064508 | 73 | 39 | 0.9 | 2.6 | 0.00 | 0.00 | 0.00 | 88 | 1017.4 |
| 20260906063019 | 73 | 350 | 0.0 | 4.3 | 0.00 | 0.00 | 0.00 | 87 | 1017.4 |
| 20260906061529 | 73 | 90 | 0.0 | 4.3 | 0.00 | 0.00 | 0.00 | 87 | 1017.4 |
| 20260906060028 | 73 | 355 | 1.7 | 4.3 | 0.00 | 0.00 | 0.00 | 87 | 1017.4 |
| 20260906054508 | 73 | 28 | 0.9 | 7.0 | 0.00 | 0.00 | 0.00 | 87 | 1017.2 |
| 20260906053014 | 73 | 72 | 0.9 | 6.1 | 0.00 | 0.00 | 0.00 | 87 | 1017.0 |
| 20260906051519 | 73 | 88 | 2.6 | 7.0 | 0.00 | 0.00 | 0.00 | 87 | 1016.8 |
| 20260906050023 | 73 | 103 | 1.7 | 8.7 | 0.00 | 0.00 | 0.00 | 87 | 1016.6 |
| 20260906044528 | 73 | 130 | 2.6 | 8.7 | 0.00 | 0.00 | 0.00 | 87 | 1016.5 |
| 20260906043008 | 74 | 90 | 0.9 | 7.8 | 0.00 | 0.00 | 0.00 | 87 | 1016.4 |
| 20260906041514 | 74 | 98 | 0.9 | 6.1 | 0.00 | 0.00 | 0.00 | 88 | 1016.4 |
| 20260906040027 | 73 | 82 | 0.9 | 6.1 | 0.00 | 0.00 | 0.00 | 87 | 1016.3 |
| 20260906034527 | 73 | 348 | 0.9 | 9.6 | 0.00 | 0.00 | 0.00 | 88 | 1016.2 |
| 20260906033041 | 74 | 9 | 2.6 | 13.0 | 0.00 | 0.00 | 0.00 | 88 | 1016.1 |
| 20260906031514 | 74 | 34 | 1.7 | 7.0 | 0.00 | 0.00 | 0.00 | 87 | 1016.0 |
| 20260906030020 | 74 | 110 | 4.3 | 9.6 | 0.00 | 0.00 | 0.00 | 87 | 1015.9 |
| 20260906024540 | 74 | 65 | 2.6 | 10.4 | 0.00 | 0.00 | 0.00 | 87 | 1016.1 |
| 20260906023028 | 74 | 92 | 1.7 | 7.8 | 0.00 | 0.00 | 0.00 | 87 | 1016.3 |
| 20260906021531 | 74 | 352 | 2.6 | 7.8 | 0.00 | 0.00 | 0.00 | 87 | 1016.2 |
| 20260906020011 | 74 | 344 | 2.6 | 8.7 | 0.00 | 0.00 | 0.00 | 86 | 1016.3 |
| 20260906014525 | 74 | 360 | 0.9 | 6.1 | 0.00 | 0.00 | 0.00 | 85 | 1016.2 |
| 20260906013040 | 73 | 32 | 1.7 | 7.0 | 0.00 | 0.00 | 0.00 | 85 | 1016.1 |
| 20260906011530 | 73 | 5 | 2.6 | 10.4 | 0.00 | 0.00 | 0.00 | 85 | 1015.9 |
| 20260906010032 | 73 | 271 | 1.7 | 10.4 | 0.00 | 0.00 | 0.00 | 85 | 1015.6 |
| 20260906004515 | 73 | 5 | 0.9 | 8.7 | 0.00 | 0.00 | 0.00 | 85 | 1015.4 |
| 20260906003023 | 73 | 20 | 2.6 | 8.7 | 0.00 | 0.00 | 0.00 | 84 | 1015.5 |
| 20260906001532 | 74 | 318 | 2.6 | 8.7 | 0.00 | 0.00 | 0.00 | 84 | 1015.6 |
| 20260906000030 | 74 | 5 | 1.7 | 9.6 | 0.00 | 0.00 | 0.00 | 83 | 1015.6 |
| 20260905234536 | 74 | 296 | 2.6 | 10.4 | 0.00 | 0.00 | 0.00 | 84 | 1015.3 |
| 20260905233018 | 75 | 32 | 0.9 | 12.2 | 0.00 | 0.00 | 0.00 | 83 | 1015.2 |
| 20260905231524 | 76 | 342 | 2.6 | 8.7 | 0.00 | 0.00 | 0.00 | 82 | 1015.1 |
| 20260905230030 | 77 | 5 | 5.2 | 11.3 | 0.00 | 0.00 | 0.00 | 80 | 1014.9 |
| 20260905224531 | 77 | 310 | 2.6 | 8.7 | 0.00 | 0.00 | 0.00 | 80 | 1014.9 |
| 20260905223033 | 77 | 318 | 2.6 | 9.6 | 0.00 | 0.00 | 0.00 | 81 | 1015.0 |
| 20260905221521 | 76 | 5 | 1.7 | 9.6 | 0.00 | 0.00 | 0.00 | 82 | 1015.0 |
| 20260905220028 | 76 | 275 | 3.5 | 8.7 | 0.00 | 0.00 | 0.00 | 82 | 1015.2 |
| 20260905214531 | 76 | 308 | 3.5 | 9.6 | 0.00 | 0.00 | 0.00 | 82 | 1015.1 |
| 20260905213042 | 77 | 15 | 3.5 | 8.7 | 0.00 | 0.00 | 0.00 | 82 | 1014.9 |
| 20260905211540 | 77 | 330 | 2.6 | 10.4 | 0.00 | 0.00 | 0.00 | 81 | 1014.9 |
| 20260905210024 | 78 | 332 | 2.6 | 10.4 | 0.00 | 0.00 | 0.00 | 79 | 1014.8 |
| 20260905204537 | 79 | 5 | 3.5 | 8.7 | 0.00 | 0.00 | 0.00 | 79 | 1014.7 |
| 20260905203030 | 79 | 307 | 4.3 | 10.4 | 0.00 | 0.00 | 0.00 | 79 | 1014.9 |
| 20260905201534 | 79 | 24 | 2.6 | 10.4 | 0.00 | 0.00 | 0.00 | 79 | 1015.0 |
| 20260905200017 | 80 | 328 | 6.1 | 11.3 | 0.00 | 0.00 | 0.00 | 78 | 1014.9 |
| 20260905194513 | 80 | 11 | 3.5 | 10.4 | 0.00 | 0.00 | 0.00 | 78 | 1015.0 |
| 20260905193006 | 81 | 348 | 4.3 | 12.2 | 0.00 | 0.00 | 0.00 | 76 | 1015.1 |
| 20260905191510 | 81 | 12 | 3.5 | 9.6 | 0.00 | 0.00 | 0.00 | 76 | 1015.2 |
| 20260905190010 | 81 | 33 | 2.6 | 7.8 | 0.00 | 0.00 | 0.00 | 75 | 1015.0 |
| 20260905184510 | 82 | 317 | 1.7 | 10.4 | 0.00 | 0.00 | 0.00 | 76 | 1015.0 |
| 20260905183012 | 82 | 342 | 2.6 | 9.6 | 0.00 | 0.00 | 0.00 | 77 | 1014.9 |
| 20260905181508 | 83 | 5 | 3.5 | 9.6 | 0.00 | 0.00 | 0.00 | 73 | 1014.9 |
| 20260905180016 | 83 | 350 | 3.5 | 10.4 | 0.00 | 0.00 | 0.00 | 72 | 1014.9 |
| 20260905174512 | 83 | 27 | 3.5 | 11.3 | 0.00 | 0.00 | 0.00 | 74 | 1014.8 |
| 20260905173015 | 84 | 321 | 3.5 | 11.3 | 0.00 | 0.00 | 0.00 | 73 | 1014.7 |
| 20260905171517 | 84 | 323 | 3.5 | 10.4 | 0.00 | 0.00 | 0.00 | 73 | 1014.8 |
| 20260905170008 | 84 | 281 | 3.5 | 9.6 | 0.00 | 0.00 | 0.00 | 74 | 1015.0 |
| 20260905164516 | 84 | 350 | 2.6 | 8.7 | 0.00 | 0.00 | 0.00 | 75 | 1014.8 |
| 20260905163019 | 84 | 327 | 3.5 | 7.8 | 0.00 | 0.00 | 0.00 | 76 | 1014.9 |
| 20260905161517 | 83 | 22 | 4.3 | 8.7 | 0.00 | 0.00 | 0.00 | 77 | 1014.9 |
| 20260905160015 | 81 | 31 | 1.7 | 7.8 | 0.00 | 0.00 | 0.00 | 82 | 1014.8 |
| 20260905154516 | 81 | 347 | 4.3 | 8.7 | 0.00 | 0.00 | 0.00 | 82 | 1014.7 |
| 20260905153018 | 81 | 313 | 0.9 | 7.8 | 0.00 | 0.00 | 0.00 | 82 | 1014.6 |
| 20260905151525 | 81 | 350 | 1.7 | 7.8 | 0.00 | 0.00 | 0.00 | 83 | 1014.5 |
| 20260905150020 | 81 | 311 | 1.7 | 7.8 | 0.00 | 0.00 | 0.00 | 82 | 1014.5 |
| 20260905144525 | 81 | 309 | 2.6 | 7.8 | 0.00 | 0.00 | 0.00 | 82 | 1014.3 |
| 20260905143026 | 81 | 313 | 1.7 | 6.1 | 0.00 | 0.00 | 0.00 | 83 | 1014.0 |
| 20260905141533 | 81 | 338 | 1.7 | 5.2 | 0.00 | 0.00 | 0.00 | 83 | 1014.0 |
| 20260905140004 | 81 | 351 | 1.7 | 5.2 | 0.00 | 0.00 | 0.00 | 83 | 1014.0 |
| 20260905134507 | 80 | 310 | 1.7 | 5.2 | 0.00 | 0.00 | 0.00 | 85 | 1014.3 |
| 20260905133010 | 79 | 334 | 0.9 | 3.5 | 0.00 | 0.00 | 0.00 | 87 | 1014.1 |
| 20260905131526 | 79 | 315 | 0.0 | 3.5 | 0.00 | 0.00 | 0.00 | 88 | 1013.9 |
| 20260905130025 | 78 | 334 | 0.9 | 4.3 | 0.00 | 0.00 | 0.00 | 89 | 1013.8 |
| 20260905124505 | 78 | 9 | 0.9 | 6.1 | 0.00 | 0.00 | 0.00 | 89 | 1013.6 |
| 20260905123015 | 77 | 305 | 0.9 | 2.6 | 0.00 | 0.00 | 0.00 | 90 | 1013.5 |
| 20260905121513 | 77 | 301 | 0.0 | 3.5 | 0.00 | 0.00 | 0.00 | 90 | 1013.4 |
| 20260905120026 | 77 | 277 | 0.0 | 1.7 | 0.00 | 0.00 | 0.00 | 91 | 1013.1 |
| 20260905114527 | 77 | 277 | 0.0 | 0.0 | 0.00 | 0.00 | 0.00 | 91 | 1013.1 |
| 20260905113008 | 77 | 277 | 0.0 | 0.0 | 0.00 | 0.00 | 0.00 | 91 | 1012.9 |
| 20260905111510 | 77 | 277 | 0.0 | 0.0 | 0.00 | 0.00 | 0.00 | 91 | 1012.7 |
| 20260905110020 | 77 | 277 | 0.0 | 2.6 | 0.00 | 0.00 | 0.00 | 90 | 1012.6 |
| 20260905104525 | 77 | 277 | 0.0 | 0.0 | 0.00 | 0.00 | 0.00 | 90 | 1012.6 |